Location: *
(51.0333°S, 178.4667°E)
Time: 12:54:50
(UTC+00:00)

Cosmos 1850 Rocket - Pass Details

Date: 15 November 2019
Orbit: 753 x 786 km, 74.0° (Epoch: 10 December)

Event Time Altitude Azimuth Distance (km) Brightness Sun altitude
Rises 10:38:59 0° 208° (SSW) 3,280 8.9 -18.7°
Reaches altitude 10° 10:41:26 10° 212° (SSW) 2,341 7.7 -18.9°
Maximum altitude 10:46:36 54° 287° (WNW) 939 4.4 -19.1°
Enters shadow 10:48:41 33° 346° (NNW) 1,273 4.7 -19.2°
